Weather History for Covington, KY

Change the Weather History Date:

Tuesday, February 25, 2014

  Actual Average Record
Temperature  
Mean Temperature 28 °F 37 °F  
Max Temperature 33 °F 46 °F 75 °F (2000)
Min Temperature 22 °F 28 °F -7 °F (1967)
Degree Days  
Heating Degree Days 37 28  
Month to date heating degree days 889 773  
Since 1 July heating degree days 4112 3745  
Cooling Degree Days 0 0  
Month to date cooling degree days 0 0  
Year to date cooling degree days 0 0  
Moisture  
Dew Point 17 °F    
Average Humidity 67    
Maximum Humidity 84    
Minimum Humidity 49    
Precipitation  
Precipitation T in 0.10 in 1.55 in (1961)
Month to date precipitation 2.73 2.51  
Year to date precipitation 5.53 5.51  
Snow  
Snow 0.20 in 0.20 in 6.70 in (1993)
Month to date snowfall 10.0 6.0  
Since 1 July snowfall 43.2 18.1  
Snow Depth T in    
Sea Level Pressure  
Sea Level Pressure 30.16 in    
Wind  
Wind Speed 8 mph (NW)    
Max Wind Speed 18 mph    
Max Gust Speed 26 mph    
Visibility 9 miles    
Events Snow    
T = Trace of Precipitation, MM = Missing Value Source: NWS Daily Summary

Daily Weather History Graph

Daily Weather History Graph

Search for Another Location

Airport:

Trip Planner

Search our weather history database for the weather conditions in past years. The results will help you decide how hot, cold, wet, or windy it might be!

Date:

Astronomy

Feb. 25, 2014 Rise Set
Actual Time 7:16 AM EST 6:27 PM EST
Civil Twilight 6:50 AM EST 6:54 PM EST
Nautical Twilight 6:19 AM EST 7:25 PM EST
Astronomical Twilight 5:48 AM EST 7:55 PM EST
Moon 4:09 AM EST (2/25) 2:33 PM EST (2/25)
Length of Visible Light 12h 04m
Length of Day
11h 10m
Waning Crescent, 18% of the Moon is Illuminated
Feb 25
Waning Crescent
Mar 1
New
Mar 8
First Quarter
Mar 16
Full
Mar 23
Last Quarter

Hourly Weather History & Observations

Time (EST) Temp. Windchill Dew Point Humidity Pressure Visibility Wind Dir Wind Speed Gust Speed Precip Events Conditions
12:52 AM 27.0 °F 23.0 °F 18.0 °F 69% 30.19 in 10.0 mi West 3.5 mph - N/A   Overcast
1:52 AM 27.0 °F 20.5 °F 18.0 °F 69% 30.17 in 10.0 mi West 5.8 mph - N/A   Overcast
2:52 AM 27.0 °F 18.7 °F 18.0 °F 69% 30.15 in 10.0 mi NW 8.1 mph - N/A   Overcast
3:52 AM 27.0 °F 18.0 °F 15.1 °F 61% 30.17 in 10.0 mi NW 9.2 mph - N/A   Overcast
4:52 AM 27.0 °F 15.6 °F 12.9 °F 56% 30.17 in 9.0 mi NNW 13.8 mph 21.9 mph 0.00 in Snow Light Snow
5:35 AM 24.8 °F 11.1 °F 17.6 °F 74% 30.17 in 1.8 mi North 18.4 mph 24.2 mph 0.00 in Snow Light Snow
5:52 AM 24.1 °F 12.0 °F 19.0 °F 81% 30.20 in 1.5 mi North 13.8 mph 23.0 mph 0.00 in Snow Light Snow
6:13 AM 23.0 °F 12.4 °F 19.4 °F 86% 30.17 in 2.0 mi NNW 10.4 mph - 0.00 in Snow Light Snow
6:30 AM 23.0 °F 14.7 °F 19.4 °F 86% 30.16 in 5.0 mi North 6.9 mph - 0.00 in Snow Light Snow
6:52 AM 21.9 °F 14.5 °F 18.0 °F 85% 30.19 in 7.0 mi North 5.8 mph - 0.00 in Snow Light Snow
7:42 AM 23.0 °F 17.0 °F 17.6 °F 80% 30.18 in 10.0 mi North 4.6 mph - 0.00 in   Overcast
7:52 AM 23.0 °F 17.0 °F 17.1 °F 78% 30.21 in 10.0 mi NW 4.6 mph - 0.00 in   Overcast
8:11 AM 23.0 °F 17.0 °F 15.8 °F 74% 30.19 in 10.0 mi NW 4.6 mph - N/A   Overcast
8:52 AM 24.1 °F - 17.1 °F 75% 30.22 in 10.0 mi Calm Calm - N/A   Overcast
9:52 AM 25.0 °F - 17.1 °F 72% 30.22 in 10.0 mi Calm Calm - N/A   Mostly Cloudy
10:52 AM 28.9 °F - 16.0 °F 58% 30.21 in 10.0 mi Calm Calm - N/A   Scattered Clouds
11:52 AM 28.9 °F 22.8 °F 15.1 °F 56% 30.21 in 10.0 mi WNW 5.8 mph - N/A   Mostly Cloudy
12:52 PM 30.0 °F 22.4 °F 16.0 °F 56% 30.19 in 10.0 mi NW 8.1 mph - N/A   Overcast
1:52 PM 30.0 °F 21.7 °F 16.0 °F 56% 30.15 in 10.0 mi NW 9.2 mph - 0.00 in Snow Light Snow
2:52 PM 30.9 °F 23.5 °F 16.0 °F 54% 30.14 in 10.0 mi WNW 8.1 mph - 0.00 in   Overcast
3:52 PM 32.0 °F 24.2 °F 16.0 °F 52% 30.12 in 10.0 mi NW 9.2 mph - N/A   Mostly Cloudy
4:52 PM 30.9 °F 21.2 °F 16.0 °F 54% 30.14 in 10.0 mi WNW 12.7 mph - N/A   Overcast
5:52 PM 30.0 °F 22.4 °F 16.0 °F 56% 30.13 in 10.0 mi NNW 8.1 mph - N/A   Overcast
6:52 PM 28.9 °F 20.4 °F 17.1 °F 61% 30.12 in 10.0 mi WNW 9.2 mph - N/A   Overcast
7:52 PM 28.0 °F 17.5 °F 17.1 °F 63% 30.13 in 10.0 mi WNW 12.7 mph - N/A   Overcast
8:52 PM 27.0 °F 16.7 °F 16.0 °F 63% 30.12 in 10.0 mi WNW 11.5 mph - 0.00 in   Overcast
9:52 PM 26.1 °F 16.8 °F 16.0 °F 66% 30.12 in 10.0 mi West 9.2 mph - N/A   Overcast
10:38 PM 26.6 °F 16.2 °F 15.8 °F 64% 30.09 in 10.0 mi West 11.5 mph - N/A   Overcast
10:52 PM 26.1 °F 15.6 °F 16.0 °F 66% 30.11 in 10.0 mi WNW 11.5 mph - N/A   Overcast
11:15 PM 26.6 °F 18.2 °F 15.8 °F 64% 30.08 in 10.0 mi WNW 8.1 mph - N/A   Overcast
11:52 PM 26.1 °F 15.0 °F 16.0 °F 66% 30.10 in 10.0 mi WNW 12.7 mph - N/A   Overcast